Location: Central Falls
(41.8900°N, 71.3929°W)
Time: 14:50:09
(UTC+00:00)

Vanguard 1 - Pass Details

Date: 03 December 2023
Orbit: 653 x 3826 km, 34.3° (Epoch: 24 February)

Event Time Altitude Azimuth Distance (km) Brightness Sun altitude
Rises 22:50:28 0° 234° (SW) 5,672 15.3 -17.3°
Reaches altitude 10° 22:53:40 10° 230° (SW) 5,014 14.7 -17.9°
Maximum altitude 23:09:17 58° 157° (SSE) 3,722 12.8 -20.7°
Enters shadow 23:23:43 27° 94° (E) 5,531 13.2 -23.3°
Drops below altitude 10° 23:31:47 10° 86° (E) 6,919 - -24.8°
Sets 23:37:09 0° 83° (E) 7,852 - -25.8°
